Date String (YYYY-MM-DD hh:mm:ss) UTC,Instrument flags,Ambient pressure (hPa),Sample flow (lpm),Bypass flow (lpm),Sample temperature (°C),Ambient temperature (°C),ASC tube jacket temperature (°C),LED temperature (°C),Box temperature (°C),Sample RH (%),Span deviation,Mass concentration (μg/m³),Mass concentration (μg/m³),Mass concentration (μg/m³)
DateTimeUTC,F1_M11,P_M11,Q1_M11,Q2_M11,T1_M11,T2_M11,T3_M11,T4_M11,T5_M11,U1_M11,ZSPAN_M11,X0_M11,X2_M11,X1_M11
2022-10-06 11:00:00,,0834.3,5.00,0.00,27.9,26.2,00.0,36.7,29.7,18.3,0001.4,0010.06,0006.28,0005.88
2022-10-06 11:01:00,,0834.3,5.00,0.00,27.9,26.2,00.0,36.7,29.7,18.3,0001.0,0010.12,0006.28,0005.87
2022-10-06 11:02:00,,0834.3,5.00,0.00,27.9,26.2,00.0,36.7,29.7,18.3,0000.1,0010.24,0006.31,0005.88
2022-10-06 11:03:00,,0834.3,5.00,0.00,27.9,26.2,00.0,36.7,29.7,18.4,0000.2,0009.84,0006.32,0005.89
2022-10-06 11:04:00,,0834.3,5.00,0.00,27.9,26.2,00.0,36.7,29.7,18.4,0000.0,0009.81,0006.30,0005.88
2022-10-06 11:05:00,,0834.3,5.00,0.00,27.9,26.2,00.0,36.7,29.7,18.3,0000.0,0009.71,0006.27,0005.88
2022-10-06 11:06:00,,0834.3,5.01,0.00,27.9,26.2,00.0,36.7,29.7,18.4,0000.0,0009.63,0006.23,0005.86
2022-10-06 11:07:00,,0834.3,5.00,0.00,27.9,26.2,00.0,36.7,29.7,18.5,-000.1,0009.62,0006.24,0005.87
2022-10-06 11:08:00,,0834.3,5.00,0.00,27.9,26.2,00.0,36.7,29.7,19.0,-000.0,0009.66,0006.25,0005.86
2022-10-06 11:09:00,,0834.3,4.99,0.00,27.9,26.2,00.0,36.7,29.7,18.5,-000.5,0009.60,0006.23,0005.86
2022-10-06 11:10:00,,0834.3,5.01,0.00,27.9,26.2,00.0,36.7,29.6,18.3,-000.8,0009.66,0006.25,0005.86
2022-10-06 11:11:00,,0834.3,4.99,0.00,27.9,26.2,00.0,36.7,29.7,18.3,-000.9,0009.65,0006.24,0005.87
2022-10-06 11:12:00,,0834.4,5.00,0.00,27.9,26.2,00.0,36.7,29.7,18.3,-000.4,0009.70,0006.25,0005.87
2022-10-06 11:13:00,,0834.4,5.01,0.00,27.8,26.2,00.0,36.7,29.6,18.6,0000.0,0009.72,0006.23,0005.85
2022-10-06 11:14:00,,0834.4,5.00,0.00,27.8,26.2,00.0,36.7,29.6,19.0,0000.1,0009.83,0006.23,0005.83
2022-10-06 11:15:00,,0834.4,5.01,0.00,27.8,26.2,00.0,36.7,29.6,18.7,0000.2,0009.97,0006.23,0005.82
2022-10-06 11:16:00,,0834.4,5.00,0.00,27.8,26.2,00.0,36.7,29.6,18.4,-000.3,0010.38,0006.20,0005.79
2022-10-06 11:17:00,,0834.4,4.99,0.00,27.8,26.2,00.0,36.7,29.6,18.3,-000.8,0010.56,0006.17,0005.74
2022-10-06 11:18:00,,0834.4,5.00,0.00,27.8,26.1,00.0,36.7,29.6,18.3,-000.8,0010.53,0006.13,0005.70
2022-10-06 11:19:00,,0834.4,5.01,0.00,27.8,26.1,00.0,36.7,29.6,18.3,-000.9,0010.40,0006.06,0005.66
2022-10-06 11:20:00,,0834.4,5.00,0.00,27.8,26.1,00.0,36.6,29.6,18.5,-001.2,0010.26,0006.01,0005.62
2022-10-06 11:21:00,,0834.4,5.00,0.00,27.8,26.1,00.0,36.6,29.6,18.4,-001.0,0010.09,0005.95,0005.58
2022-10-06 11:22:00,,0834.4,4.99,0.00,27.8,26.1,00.0,36.6,29.6,18.4,-000.6,0010.04,0005.91,0005.53
2022-10-06 11:23:00,,0834.4,5.00,0.00,27.8,26.1,00.0,36.6,29.5,18.4,-000.5,0010.00,0005.87,0005.48
2022-10-06 11:24:00,,0834.4,5.00,0.00,27.8,26.1,00.0,36.6,29.6,18.3,-000.8,0009.84,0005.81,0005.43
2022-10-06 11:25:00,,0834.4,5.00,0.00,27.8,26.1,00.0,36.6,29.6,18.3,-000.7,0009.64,0005.75,0005.41
2022-10-06 11:26:00,,0834.4,4.99,0.00,27.8,26.1,00.0,36.6,29.6,18.2,-000.2,0009.37,0005.70,0005.37
2022-10-06 11:27:00,,0834.4,5.00,0.00,27.8,26.1,00.0,36.6,29.6,18.2,0000.6,0008.84,0005.66,0005.34
2022-10-06 11:28:00,,0834.4,5.00,0.00,27.8,26.1,00.0,36.6,29.5,18.2,0000.8,0008.97,0005.64,0005.33
2022-10-06 11:29:00,,0834.4,4.99,0.00,27.8,26.1,00.0,36.6,29.5,18.2,0001.2,0009.24,0005.60,0005.31
2022-10-06 11:30:00,,0834.5,5.01,0.00,27.8,26.1,00.0,36.6,29.5,18.2,0001.9,0009.22,0005.59,0005.29
2022-10-06 11:31:00,,0834.5,4.99,0.00,27.8,26.1,00.0,36.6,29.5,18.2,0002.1,0009.40,0005.59,0005.29
2022-10-06 11:32:00,,0834.4,5.00,0.00,27.7,26.0,00.0,36.6,29.5,18.2,0001.7,0009.43,0005.56,0005.26
2022-10-06 11:33:00,,0834.4,5.00,0.00,27.7,26.0,00.0,36.6,29.5,18.2,0001.1,0009.42,0005.53,0005.24
2022-10-06 11:34:00,,0834.4,5.00,0.00,27.7,26.1,00.0,36.6,29.5,18.1,0001.5,0009.33,0005.49,0005.24
2022-10-06 11:35:00,,0834.5,5.00,0.00,27.7,26.1,00.0,36.6,29.5,18.1,0001.8,0009.39,0005.47,0005.22
2022-10-06 11:36:00,,0834.5,4.99,0.00,27.7,26.0,00.0,36.6,29.5,18.2,0002.1,0010.10,0005.48,0005.21
2022-10-06 11:37:00,,0834.4,5.01,0.00,27.7,26.0,00.0,36.5,29.5,18.2,0000.9,0010.07,0005.45,0005.19
2022-10-06 11:38:00,,0834.5,4.99,0.00,27.7,26.1,00.0,36.5,29.5,18.2,0000.4,0010.10,0005.45,0005.17
2022-10-06 11:39:00,,0834.5,5.01,0.00,27.7,26.0,00.0,36.5,29.5,18.2,0000.5,0009.88,0005.48,0005.16
2022-10-06 11:40:00,,0834.5,4.99,0.00,27.7,26.0,00.0,36.5,29.5,18.2,0000.0,0009.49,0005.51,0005.16
2022-10-06 11:41:00,,0834.5,5.01,0.00,27.7,26.0,00.0,36.5,29.5,18.2,0000.0,0009.49,0005.51,0005.16
2022-10-06 11:42:00,,0834.5,4.99,0.00,27.7,26.0,00.0,36.5,29.5,18.1,0000.0,0009.37,0005.49,0005.16
2022-10-06 11:43:00,,0834.5,5.01,0.00,27.7,26.0,00.0,36.5,29.5,18.1,0000.0,0009.50,0005.50,0005.14
2022-10-06 11:44:00,,0834.5,4.99,0.00,27.7,26.0,00.0,36.5,29.5,18.1,0000.0,0009.66,0005.52,0005.12
2022-10-06 11:45:00,,0834.5,5.00,0.00,27.7,26.0,00.0,36.5,29.5,18.0,0000.0,0009.80,0005.50,0005.10
2022-10-06 11:46:00,,0834.5,5.01,0.00,27.7,26.0,00.0,36.5,29.5,18.1,0000.0,0009.83,0005.49,0005.10
2022-10-06 11:47:00,,0834.5,4.99,0.00,27.7,26.0,00.0,36.5,29.4,18.1,0000.0,0009.13,0005.48,0005.08
2022-10-06 11:48:00,,0834.5,5.01,0.00,27.7,26.0,00.0,36.5,29.4,18.0,0001.2,0009.17,0005.49,0005.08
2022-10-06 11:49:00,,0834.4,4.99,0.00,27.7,26.0,00.0,36.5,29.5,18.0,0001.9,0009.19,0005.48,0005.07
2022-10-06 11:50:00,,0834.5,5.01,0.00,27.7,26.0,00.0,36.5,29.4,18.1,0000.2,0009.64,0005.45,0005.06
2022-10-06 11:51:00,,0834.5,4.99,0.00,27.7,26.0,00.0,36.5,29.5,18.1,0000.6,0009.76,0005.44,0005.05
2022-10-06 11:52:00,,0834.5,5.00,0.00,27.7,26.0,00.0,36.5,29.5,18.1,0001.8,0010.28,0005.44,0005.05
2022-10-06 11:53:00,,0834.6,5.01,0.00,27.6,26.0,00.0,36.4,29.4,18.1,0000.0,0010.32,0005.46,0005.05
2022-10-06 11:54:00,,0834.5,4.99,0.00,27.6,25.9,00.0,36.4,29.4,18.1,0000.0,0010.41,0005.46,0005.06
2022-10-06 11:55:00,,0834.5,5.01,0.00,27.6,25.9,00.0,36.4,29.4,18.1,0000.0,0010.30,0005.44,0005.05
2022-10-06 11:56:00,,0834.5,5.00,0.00,27.6,25.9,00.0,36.4,29.4,18.1,0000.2,0010.06,0005.45,0005.07
2022-10-06 11:57:00,,0834.5,5.00,0.00,27.6,25.9,00.0,36.4,29.4,18.1,0001.2,0010.09,0005.46,0005.07
2022-10-06 11:58:00,,0834.6,5.01,0.00,27.6,25.9,00.0,36.4,29.4,18.1,0000.6,0010.23,0005.46,0005.08
2022-10-06 11:59:00,,0834.5,4.99,0.00,27.6,25.9,00.0,36.4,29.4,18.1,0000.2,0010.62,0005.45,0005.07
